Location: Unspecified
(47.9110°N, 14.3980°E)
Time: 03:22:39
(UTC+00:00)

Lacrosse 5 - Pass Details

Date: 06 August 2020
Orbit: 717 x 720 km, 57.0° (Epoch: 18 September)

Event Time Altitude Azimuth Distance (km) Brightness Sun altitude
Rises 23:24:32 0° 301° (WNW) 3,129 5.5 -25.6°
Reaches altitude 10° 23:27:13 10° 289° (WNW) 2,206 4.5 -25.6°
Enters shadow 23:29:10 19° 272° (W) 1,655 3.7 -25.6°
